COSMOS 2500 (755)

Last updated on Wed Sep 23 2026 00:03:56 GMT+0000 (Coordinated Universal Time)

1 40001U 14032A 26265.17433301 -.00000008 00000+0 00000+0 0 9995 2 40001 65.1709 310.3745 0009506 206.5465 153.4828 2.13101798 95520
UTC large
Height (km)
Speed (km/s)
/
Latitude / Longitude
Inclination (degrees)
Orbital Period (minutes)
Azimuth
Elevation
Range (km)
Doppler Factor

Next 0 passes for location: London (51.5072 / 0.1276)

No passes found over London.
COSMOS 2500 (755)